Regional Weather Roundup
Issued by NWS Midland/Odessa, TX

Skip options and go directly to product.
Home | Oldest Version | Previous Version | Current Version | All | Text Only | Save Text | Print | Product List | Glossary Off

Skip product version selection by date and time.   

459
ASUS44 KMAF 211210
RWRMAF
MIDLAND AREA WEATHER ROUNDUP
NATIONAL WEATHER SERVICE MIDLAND TX
700 AM CDT MON APR 21 2014

...IN SOUTHWEST TEXAS AND SOUTHEAST NEW MEXICO...

CITY           SKY/WX    TMP DP  RH WIND       PRES   REMARKS
ALPINE         CLEAR     55  42  61 CALM      30.20R
ANDREWS        CLOUDY    58  58  99 SW10      30.06R FOG
ARTESIA        CLEAR     54  41  62 NW10      30.08R
BIG SPRING     CLOUDY    65  60  85 SW10      30.05S
CARLSBAD       CLEAR     60  42  51 NW9       30.06R
DRYDEN           N/A     69  64  84 CALM      30.04R
FORT STOCKTON  CLEAR     58  54  86 SW10      30.06R
GUAD PASS      CLEAR     56  35  45 S7        30.18R
HOBBS          CLEAR     50  43  76 CALM      30.08
MARFA          CLEAR     43  36  75 N8        30.18S WCI  38
MIDLAND AIRPK  MOCLDY    64  60  88 SW13      30.04S FOG
MIDLAND INTL   CLOUDY    63  61  93 SW16      30.04R
ODESSA         CLOUDY    62  60  93 S10       30.06R FOG
PECOS          CLEAR     53  45  72 SW5       30.05R
PRESIDIO       FAIR      66  46  47 CALM      30.07R
SEMINOLE       CLEAR     55  54  95 W5        30.07R FOG
SNYDER         CLOUDY    62  60  93 SW12      30.02S FOG
WINK           CLOUDY    57  56  96 NE3       30.04R
$$
...OTHER STATIONS IN TEXAS...

CITY           SKY/WX    TMP DP  RH WIND       PRES   REMARKS
ABILENE        CLEAR     64  60  87 SW8       29.98S
AMARILLO       CLEAR     52  46  80 NW12      30.04R
AUSTIN         CLOUDY    65  63  93 S6        30.03R
BROWNSVILLE    CLOUDY    69  68  96 E5        30.03R
CORPUS CHRISTI LGT RAIN  70  66  87 CALM      30.05R
DALLAS FTW     CLOUDY    63  60  90 S12       29.99F
DEL RIO        PTCLDY    68  64  87 E9        30.01R
EL PASO        PTCLDY    56  43  61 S6        30.10R
HOUSTON INT    MOCLDY    63  62  97 S3        30.08S
LUBBOCK        PTCLDY    50  46  86 W6        30.03R
SAN ANGELO     CLOUDY    68  62  81 SW16G23   30.02R
SAN ANTONIO    CLOUDY    68  63  84 S7        30.04R
WACO           CLOUDY    65  61  87 S13       30.03R
WICHITA FALLS  NOT AVBL
$$
...OTHER LOCATIONS IN NEW MEXICO...

CITY           SKY/WX    TMP DP  RH WIND       PRES   REMARKS
ALAMAGORDO     PTCLDY    50  37  62 CALM      30.13R
ALBUQUERQUE    CLEAR     52  36  54 NE5       30.19R
CANNON AFB     CLEAR     51  42  69 NW9       30.09R
CLOVIS           N/A     54  41  62 NW12      30.11R
HOLLOMAN AFB   PTCLDY    48  38  67 NE5       30.11R
ROSWELL        CLEAR     52  43  71 W5        30.09R
RUIDOSO        CLEAR     50  32  50 W10       30.25R
SANTA FE       CLEAR     45  36  70 N12       30.22R WCI  39
TRUTH OR CONSE CLEAR     54  36  50 NW9       30.15R
TUCUMCARI      CLEAR     47  41  80 S5        30.09R
$$

USA.gov is the U.S. government's official web portal to all federal, state and local government web resources and services.